| time (UTC) | temp F | wind direction | speed MPH | gust MPH | rain 1hr in | rain 24hr in | rain mn in | humidity % | barometer mb |
| 20260509222520 | 63 | 184 | 3.0 | 7.0 | 0.00 | 0.21 | 0.01 | 79 | 1006.2 |
| 20260509221519 | 61 | 185 | 2.0 | 7.0 | 0.00 | 0.21 | 0.01 | 82 | 1006.1 |
| 20260509220520 | 61 | 185 | 2.0 | 6.0 | 0.00 | 0.23 | 0.01 | 85 | 1006.0 |
| 20260509215517 | 62 | 173 | 2.0 | 5.0 | 0.00 | 0.24 | 0.01 | 81 | 1006.0 |
| 20260509214518 | 61 | 197 | 1.0 | 6.0 | 0.00 | 0.24 | 0.01 | 83 | 1006.0 |
| 20260509213517 | 61 | 168 | 1.0 | 5.0 | 0.00 | 0.27 | 0.01 | 84 | 1006.1 |
| 20260509212517 | 60 | 191 | 3.0 | 8.0 | 0.00 | 0.27 | 0.01 | 86 | 1005.9 |
| 20260509211518 | 59 | 239 | 1.0 | 3.0 | 0.00 | 0.27 | 0.01 | 88 | 1005.9 |
| 20260509210518 | 59 | 194 | 2.0 | 5.0 | 0.00 | 0.27 | 0.01 | 89 | 1006.0 |
| 20260509205518 | 58 | 248 | 2.0 | 4.0 | 0.00 | 0.27 | 0.01 | 90 | 1005.9 |
| 20260509204518 | 58 | 215 | 3.0 | 7.0 | 0.00 | 0.27 | 0.01 | 91 | 1005.9 |
| 20260509203538 | 57 | 224 | 2.0 | 6.0 | 0.00 | 0.27 | 0.01 | 91 | 1005.8 |
| 20260509202521 | 57 | 240 | 2.0 | 4.0 | 0.00 | 0.27 | 0.01 | 91 | 1005.7 |
| 20260509201519 | 57 | 222 | 2.0 | 6.0 | 0.00 | 0.27 | 0.00 | 92 | 1005.5 |
| 20260509200521 | 56 | 225 | 1.0 | 3.0 | 0.00 | 0.27 | 0.00 | 93 | 1005.4 |
| 20260509195522 | 55 | 229 | 2.0 | 4.0 | 0.00 | 0.27 | 0.00 | 93 | 1005.5 |
| 20260509194521 | 55 | 0.0 | 0.0 | 0.00 | 0.27 | 0.00 | 93 | 1005.3 | |
| 20260509193521 | 55 | 267 | 0.0 | 1.0 | 0.00 | 0.27 | 0.00 | 93 | 1005.2 |
| 20260509192542 | 55 | 278 | 0.0 | 2.0 | 0.00 | 0.27 | 0.00 | 92 | 1005.1 |
| 20260509191521 | 55 | 255 | 1.0 | 3.0 | 0.00 | 0.27 | 0.00 | 92 | 1005.0 |
| 20260509190542 | 55 | 277 | 1.0 | 2.0 | 0.00 | 0.27 | 0.00 | 92 | 1005.0 |
| 20260509185523 | 55 | 227 | 1.0 | 3.0 | 0.00 | 0.27 | 0.00 | 93 | 1005.1 |
| 20260509184519 | 55 | 225 | 2.0 | 7.0 | 0.00 | 0.27 | 0.00 | 93 | 1005.0 |
| 20260509183542 | 55 | 263 | 1.0 | 3.0 | 0.00 | 0.27 | 0.00 | 93 | 1005.1 |
| 20260509182522 | 55 | 244 | 1.0 | 3.0 | 0.00 | 0.27 | 0.00 | 93 | 1005.0 |
| 20260509181522 | 55 | 252 | 1.0 | 2.0 | 0.00 | 0.27 | 0.00 | 93 | 1005.1 |
| 20260509180521 | 54 | 231 | 1.0 | 4.0 | 0.00 | 0.27 | 0.00 | 93 | 1005.0 |
| 20260509175522 | 54 | 195 | 1.0 | 3.0 | 0.00 | 0.27 | 0.00 | 94 | 1004.8 |
| 20260509174522 | 53 | 245 | 1.0 | 3.0 | 0.00 | 0.28 | 0.00 | 94 | 1004.6 |
| 20260509173522 | 53 | 211 | 0.0 | 2.0 | 0.00 | 0.28 | 0.00 | 95 | 1004.5 |
| 20260509172523 | 53 | 203 | 1.0 | 2.0 | 0.00 | 0.28 | 0.00 | 95 | 1004.5 |
| 20260509171523 | 53 | 221 | 1.0 | 3.0 | 0.00 | 0.28 | 0.00 | 96 | 1004.5 |
| 20260509170523 | 52 | 242 | 0.0 | 2.0 | 0.00 | 0.28 | 0.00 | 96 | 1004.4 |
| 20260509165523 | 52 | 237 | 0.0 | 3.0 | 0.00 | 0.28 | 0.00 | 96 | 1004.3 |
| 20260509164523 | 52 | 209 | 0.0 | 3.0 | 0.00 | 0.28 | 0.00 | 96 | 1004.3 |
| 20260509163523 | 52 | 231 | 0.0 | 1.0 | 0.00 | 0.28 | 0.00 | 96 | 1004.3 |
| 20260509162603 | 52 | 148 | 1.0 | 4.0 | 0.00 | 0.28 | 0.00 | 96 | 1004.3 |
| 20260509161524 | 52 | 0.0 | 0.0 | 0.00 | 0.28 | 0.00 | 96 | 1004.3 | |
| 20260509160523 | 52 | 0.0 | 0.0 | 0.00 | 0.28 | 0.00 | 96 | 1004.3 | |
| 20260509155524 | 52 | 76 | 0.0 | 1.0 | 0.00 | 0.28 | 0.00 | 96 | 1004.3 |
| 20260509154544 | 52 | 0.0 | 0.0 | 0.00 | 0.28 | 0.00 | 96 | 1004.3 | |
| 20260509153524 | 53 | 283 | 0.0 | 2.0 | 0.00 | 0.28 | 0.00 | 96 | 1004.3 |
| 20260509152524 | 53 | 205 | 0.0 | 1.0 | 0.00 | 0.28 | 0.00 | 96 | 1004.4 |
| 20260509151519 | 53 | 168 | 0.0 | 0.0 | 0.00 | 0.28 | 0.00 | 96 | 1004.4 |
| 20260509150540 | 52 | 225 | 0.0 | 1.0 | 0.00 | 0.28 | 0.00 | 96 | 1004.6 |
| 20260509145518 | 52 | 179 | 0.0 | 1.0 | 0.00 | 0.28 | 0.00 | 95 | 1004.6 |
| 20260509144518 | 53 | 0.0 | 0.0 | 0.00 | 0.28 | 0.00 | 95 | 1004.6 | |
| 20260509143519 | 53 | 0.0 | 0.0 | 0.00 | 0.28 | 0.00 | 95 | 1004.8 | |
| 20260509142539 | 54 | 143 | 0.0 | 1.0 | 0.00 | 0.28 | 0.00 | 95 | 1004.8 |
| 20260509141519 | 54 | 242 | 0.0 | 1.0 | 0.00 | 0.28 | 0.00 | 95 | 1004.8 |
| 20260509140519 | 55 | 185 | 0.0 | 2.0 | 0.00 | 0.28 | 0.00 | 95 | 1004.9 |
| 20260509135519 | 55 | 232 | 1.0 | 3.0 | 0.00 | 0.28 | 0.00 | 95 | 1004.9 |
| 20260509134538 | 56 | 257 | 0.0 | 2.0 | 0.00 | 0.28 | 0.00 | 95 | 1004.8 |
| 20260509133516 | 56 | 0.0 | 0.0 | 0.00 | 0.28 | 0.00 | 95 | 1004.7 | |
| 20260509132516 | 55 | 270 | 0.0 | 1.0 | 0.00 | 0.28 | 0.00 | 95 | 1004.7 |
| 20260509131517 | 55 | 217 | 0.0 | 2.0 | 0.00 | 0.28 | 0.00 | 95 | 1004.6 |
| 20260509130520 | 55 | 230 | 0.0 | 2.0 | 0.00 | 0.28 | 0.00 | 95 | 1004.6 |
| 20260509125520 | 55 | 220 | 0.0 | 1.0 | 0.00 | 0.28 | 0.00 | 95 | 1004.6 |
| 20260509124520 | 56 | 0.0 | 0.0 | 0.00 | 0.29 | 0.00 | 95 | 1004.8 | |
| 20260509123520 | 56 | 155 | 0.0 | 1.0 | 0.00 | 0.29 | 0.00 | 95 | 1004.8 |
| 20260509122541 | 56 | 228 | 0.0 | 1.0 | 0.00 | 0.29 | 0.00 | 95 | 1004.9 |
| 20260509121521 | 57 | 224 | 0.0 | 1.0 | 0.00 | 0.29 | 0.00 | 95 | 1004.9 |
| 20260509120541 | 57 | 112 | 0.0 | 2.0 | 0.00 | 0.29 | 0.00 | 95 | 1005.1 |
| 20260509115519 | 56 | 0.0 | 0.0 | 0.00 | 0.29 | 0.29 | 95 | 1005.2 | |
| 20260509114538 | 56 | 0.0 | 0.0 | 0.03 | 0.30 | 0.29 | 95 | 1005.2 | |
| 20260509113558 | 56 | 0.0 | 0.0 | 0.03 | 0.30 | 0.29 | 95 | 1005.2 | |
| 20260509112542 | 56 | 178 | 0.0 | 1.0 | 0.03 | 0.30 | 0.29 | 94 | 1005.2 |
| 20260509111518 | 56 | 155 | 0.0 | 2.0 | 0.03 | 0.31 | 0.29 | 94 | 1005.2 |
| 20260509110518 | 56 | 311 | 0.0 | 3.0 | 0.03 | 0.35 | 0.29 | 94 | 1005.2 |
| 20260509105520 | 56 | 273 | 1.0 | 3.0 | 0.02 | 0.39 | 0.29 | 94 | 1005.2 |
| 20260509104519 | 56 | 272 | 0.0 | 2.0 | 0.00 | 0.37 | 0.26 | 94 | 1004.9 |
| 20260509103519 | 56 | 287 | 0.0 | 2.0 | 0.00 | 0.37 | 0.26 | 94 | 1004.7 |
| 20260509102519 | 56 | 236 | 0.0 | 1.0 | 0.00 | 0.37 | 0.26 | 94 | 1004.8 |
| 20260509101519 | 56 | 0.0 | 0.0 | 0.00 | 0.37 | 0.26 | 94 | 1004.9 | |
| 20260509100519 | 56 | 169 | 0.0 | 1.0 | 0.00 | 0.37 | 0.26 | 94 | 1004.8 |
| 20260509095519 | 56 | 303 | 0.0 | 1.0 | 0.00 | 0.37 | 0.26 | 93 | 1004.9 |
| 20260509094520 | 56 | 165 | 1.0 | 3.0 | 0.00 | 0.37 | 0.26 | 93 | 1004.7 |
| 20260509093516 | 56 | 218 | 0.0 | 2.0 | 0.00 | 0.37 | 0.26 | 93 | 1004.6 |
| 20260509092518 | 57 | 234 | 1.0 | 3.0 | 0.02 | 0.39 | 0.26 | 93 | 1004.6 |
| 20260509091516 | 57 | 247 | 1.0 | 4.0 | 0.03 | 0.42 | 0.26 | 93 | 1004.8 |
| 20260509090520 | 57 | 270 | 1.0 | 4.0 | 0.03 | 0.43 | 0.26 | 93 | 1005.0 |
| 20260509085520 | 57 | 209 | 0.0 | 2.0 | 0.03 | 0.44 | 0.26 | 92 | 1005.0 |
| 20260509084517 | 57 | 312 | 2.0 | 5.0 | 0.03 | 0.46 | 0.26 | 92 | 1004.9 |
| 20260509083520 | 57 | 289 | 2.0 | 7.0 | 0.02 | 0.47 | 0.26 | 92 | 1005.0 |
| 20260509082520 | 58 | 321 | 4.0 | 7.0 | 0.00 | 0.47 | 0.24 | 93 | 1005.1 |
| 20260509081521 | 58 | 269 | 1.0 | 4.0 | 0.01 | 0.50 | 0.24 | 92 | 1005.1 |
| 20260509080520 | 58 | 305 | 0.0 | 1.0 | 0.02 | 0.54 | 0.24 | 92 | 1005.2 |
| 20260509075518 | 58 | 252 | 0.0 | 2.0 | 0.04 | 0.55 | 0.24 | 92 | 1005.1 |
| 20260509074518 | 58 | 228 | 2.0 | 4.0 | 0.05 | 0.57 | 0.24 | 92 | 1005.1 |
| 20260509073520 | 58 | 216 | 0.0 | 3.0 | 0.05 | 0.61 | 0.24 | 92 | 1004.9 |
| 20260509072521 | 59 | 287 | 2.0 | 4.0 | 0.05 | 0.63 | 0.24 | 92 | 1005.1 |
| 20260509071518 | 59 | 239 | 2.0 | 7.0 | 0.05 | 0.63 | 0.23 | 92 | 1005.0 |
| 20260509070519 | 59 | 225 | 3.0 | 7.0 | 0.04 | 0.62 | 0.21 | 91 | 1004.9 |
| 20260509065518 | 60 | 325 | 2.0 | 5.0 | 0.03 | 0.61 | 0.20 | 91 | 1004.6 |
| 20260509064540 | 60 | 219 | 1.0 | 4.0 | 0.03 | 0.61 | 0.19 | 91 | 1004.7 |
| 20260509063542 | 60 | 214 | 0.0 | 2.0 | 0.02 | 0.60 | 0.18 | 90 | 1004.5 |
| 20260509062519 | 60 | 317 | 1.0 | 2.0 | 0.02 | 0.60 | 0.18 | 90 | 1004.4 |
| 20260509061520 | 60 | 295 | 0.0 | 2.0 | 0.01 | 0.59 | 0.18 | 90 | 1004.3 |
| 20260509060519 | 60 | 236 | 1.0 | 3.0 | 0.02 | 0.60 | 0.17 | 89 | 1004.2 |
| 20260509055540 | 60 | 269 | 1.0 | 2.0 | 0.02 | 0.62 | 0.17 | 89 | 1004.2 |
| 20260509054519 | 60 | 271 | 1.0 | 3.0 | 0.01 | 0.62 | 0.16 | 89 | 1004.3 |
| 20260509053516 | 61 | 239 | 0.0 | 2.0 | 0.01 | 0.63 | 0.16 | 88 | 1004.2 |
| 20260509052516 | 61 | 256 | 2.0 | 5.0 | 0.01 | 0.66 | 0.16 | 88 | 1004.2 |
| 20260509051537 | 62 | 246 | 3.0 | 10.0 | 0.01 | 0.69 | 0.16 | 88 | 1004.2 |
| 20260509050520 | 62 | 282 | 2.0 | 7.0 | 0.00 | 0.68 | 0.15 | 88 | 1004.2 |
| 20260509045520 | 62 | 290 | 2.0 | 5.0 | 0.00 | 0.68 | 0.15 | 88 | 1004.2 |
| 20260509044520 | 62 | 195 | 1.0 | 2.0 | 0.00 | 0.68 | 0.15 | 88 | 1004.2 |
| 20260509043601 | 62 | 245 | 1.0 | 4.0 | 0.00 | 0.68 | 0.15 | 88 | 1004.3 |
| 20260509042520 | 62 | 258 | 1.0 | 5.0 | 0.01 | 0.68 | 0.15 | 87 | 1004.3 |
| 20260509041520 | 63 | 212 | 1.0 | 2.0 | 0.01 | 0.68 | 0.15 | 87 | 1004.3 |
| 20260509040520 | 62 | 0.0 | 0.0 | 0.01 | 0.68 | 0.15 | 86 | 1004.3 | |
| 20260509035521 | 63 | 224 | 0.0 | 2.0 | 0.01 | 0.68 | 0.15 | 85 | 1004.5 |
| 20260509034518 | 63 | 227 | 1.0 | 3.0 | 0.01 | 0.68 | 0.15 | 85 | 1004.8 |
| 20260509033521 | 63 | 267 | 2.0 | 4.0 | 0.01 | 0.68 | 0.15 | 84 | 1004.8 |
| 20260509032521 | 64 | 319 | 2.0 | 6.0 | 0.00 | 0.67 | 0.14 | 83 | 1005.2 |
| 20260509031518 | 64 | 268 | 1.0 | 4.0 | 0.00 | 0.67 | 0.14 | 83 | 1005.1 |
| 20260509030519 | 64 | 242 | 3.0 | 8.0 | 0.00 | 0.67 | 0.14 | 82 | 1005.2 |
| 20260509025518 | 65 | 270 | 3.0 | 8.0 | 0.00 | 0.67 | 0.14 | 81 | 1005.1 |
| 20260509024519 | 65 | 247 | 3.0 | 8.0 | 0.00 | 0.67 | 0.14 | 80 | 1004.9 |
| 20260509023522 | 66 | 285 | 3.0 | 9.0 | 0.00 | 0.67 | 0.14 | 79 | 1005.0 |
| 20260509022542 | 66 | 245 | 2.0 | 8.0 | 0.00 | 0.67 | 0.14 | 80 | 1005.0 |
| 20260509021518 | 66 | 262 | 3.0 | 7.0 | 0.00 | 0.67 | 0.14 | 80 | 1005.0 |
| 20260509020520 | 66 | 240 | 2.0 | 5.0 | 0.00 | 0.67 | 0.14 | 78 | 1005.1 |
| 20260509015519 | 66 | 283 | 2.0 | 6.0 | 0.00 | 0.67 | 0.14 | 78 | 1005.0 |
| 20260509014538 | 66 | 271 | 3.0 | 6.0 | 0.00 | 0.67 | 0.14 | 78 | 1004.9 |
| 20260509013518 | 66 | 253 | 2.0 | 6.0 | 0.00 | 0.67 | 0.14 | 79 | 1004.9 |
| 20260509012517 | 66 | 293 | 2.0 | 6.0 | 0.00 | 0.67 | 0.14 | 79 | 1005.1 |
| 20260509011516 | 65 | 247 | 3.0 | 8.0 | 0.00 | 0.67 | 0.14 | 80 | 1005.2 |
| 20260509010520 | 64 | 303 | 2.0 | 6.0 | 0.05 | 0.67 | 0.14 | 84 | 1005.4 |
| 20260509005518 | 63 | 240 | 2.0 | 7.0 | 0.05 | 0.67 | 0.14 | 86 | 1005.6 |
| 20260509004519 | 62 | 235 | 2.0 | 5.0 | 0.05 | 0.67 | 0.14 | 87 | 1005.9 |
| 20260509003520 | 63 | 266 | 3.0 | 8.0 | 0.05 | 0.67 | 0.14 | 87 | 1006.1 |
| 20260509002520 | 63 | 268 | 3.0 | 7.0 | 0.05 | 0.67 | 0.14 | 88 | 1006.4 |
| 20260509001602 | 65 | 275 | 3.0 | 6.0 | 0.05 | 0.67 | 0.14 | 84 | 1006.7 |
| 20260509000519 | 67 | 254 | 2.0 | 6.0 | 0.00 | 0.61 | 0.09 | 78 | 1006.5 |
| 20260508235518 | 66 | 226 | 2.0 | 5.0 | 0.00 | 0.61 | 0.09 | 80 | 1006.7 |
| 20260508234517 | 65 | 254 | 3.0 | 8.0 | 0.00 | 0.61 | 0.09 | 82 | 1006.9 |
| 20260508233520 | 65 | 263 | 3.0 | 7.0 | 0.00 | 0.61 | 0.09 | 83 | 1007.1 |
| 20260508232519 | 65 | 273 | 3.0 | 7.0 | 0.00 | 0.61 | 0.09 | 84 | 1007.0 |
| 20260508231519 | 64 | 255 | 2.0 | 5.0 | 0.00 | 0.61 | 0.09 | 87 | 1007.1 |
| 20260508230518 | 63 | 252 | 3.0 | 6.0 | 0.02 | 0.61 | 0.09 | 89 | 1007.2 |
| 20260508225518 | 62 | 256 | 2.0 | 6.0 | 0.03 | 0.61 | 0.09 | 90 | 1007.3 |
| 20260508224519 | 61 | 247 | 1.0 | 3.0 | 0.03 | 0.61 | 0.09 | 91 | 1007.4 |
| 20260508223540 | 60 | 249 | 2.0 | 5.0 | 0.06 | 0.61 | 0.09 | 91 | 1007.5 |